Preview of NWS' New Version of Forecast
This preview is not operational and should not be used for support decisions.

Regional Weather Roundup (RWR)

Issued by National Weather Service (NWS)

                            
000
ASUS46 KSEW 170310
RWRWA 

WASHINGTON REGIONAL WEATHER ROUNDUP
NATIONAL WEATHER SERVICE SEATTLE WA
800 PM PDT TUE JUL 16 2019

NOTE:"FAIR" INDICATES FEW OR NO CLOUDS BELOW 12,000 FEET WITH NO 
SIGNIFICANT WEATHER AND/OR OBSTRUCTIONS TO VISIBILITY.

WAZ507-509-555>559-170400-
SEATTLE, TACOMA, EVERETT, AND VICINITY
  
CITY           SKY/WX    TMP DP  RH WIND       PRES   REMARKS
EVERETT        CLEAR     65  54  67 N7        29.96F                  
BOEING FIELD   MOCLDY    75  54  47 SW7G16    29.93R                  
RENTON         PTCLDY    76  57  51 S7        29.93R                  
SEATAC AIRPORT MOCLDY    74  56  53 SW12      29.95S                  
JBLM-MCCHORD   CLOUDY    73  62  68 W15       29.95F                  
PUYALLUP       MOCLDY    72  59  64 W5        29.97S                  
BREMERTON      PTCLDY    71  55  56 SW15      29.95S                  
JBLM-FT LEWIS  NOT AVBL                                               
TACOMA NARROWS PTCLDY    70  55  59 SW6       29.95S                  
$$
 
WAZ001-503-506-510-514-515-170400-
NORTH INTERIOR
  
CITY           SKY/WX    TMP DP  RH WIND       PRES   REMARKS
BELLINGHAM     CLOUDY    68  54  60 S9        29.92F                  
FRIDAY HARBOR  MOCLDY    61  51  70 S3        29.93F                  
EASTSOUND      CLOUDY    68  55  64 S8        29.91F                  
PORT ANGELES   MOCLDY    64  54  69 W12       29.96F                  
EDIZ HOOK      MOCLDY    62  54  73 W9        29.95F                  
PORT TOWNSEND  FAIR      66  55  68 NW6       29.94F                  
NAS WHIDBEY    CLOUDY    62  53  72 VRB3      29.99F                  
ARLINGTON      PTCLDY    67  54  63 NW13      29.95S                  
BURLINGTON     CLEAR     68  55  64 S5        29.94F                  
$$
 
WAZ020-022-039-040-504-511-512-170400-
SOUTHWEST INTERIOR
  
CITY           SKY/WX    TMP DP  RH WIND       PRES   REMARKS
SHELTON        PTCLDY    70  55  59 SW14      29.94S                  
OLYMPIA        CLEAR     68  58  70 SW5       29.97R                  
CHEHALIS       FAIR      70  61  73 CALM      29.99S                  
KELSO          MOCLDY    69  58  67 NW7       30.01R                  
VANCOUVER      CLOUDY    72  58  61 N8        29.97R                  
SCAPPOOSE, OR  PTCLDY    71  56  58 NW9G16    29.97R                  
PORTLAND, OR   MOCLDY    73  58  59 N10G20    29.97R                  
$$
 
WAZ021-516-517-170400-
WASHINGTON COAST
  
CITY           SKY/WX    TMP DP  RH WIND       PRES   REMARKS
FORKS          MOCLDY    64  58  80 SW7       29.98F                  
HOQUIAM        MOCLDY    66  60  81 W9        30.00F                  
ASTORIA, OR    CLOUDY    65  57  75 W9        30.02S                  
$$
 
WAZ019-023-024-040-567>569-170400-
CASCADE MOUNTAINS AND COLUMBIA GORGE
  
CITY           SKY/WX    TMP DP  RH WIND       PRES   REMARKS
STAMPEDE PASS  PTCLDY    58  49  72 VRB5      30.04F                  
TROUTDALE, OR  PTCLDY    73  58  59 NW9G17    29.96R                  
HOOD RIVER, OR PTCLDY    73  50  43 W7        29.92F                  
THE DALLES, OR PTCLDY    78  51  38 W18       29.87S                  
$$

WAZ026-027-041>044-520-521-170400-
EAST SLOPES
  
CITY           SKY/WX    TMP DP  RH WIND       PRES   REMARKS
OMAK           CLEAR     78  49  35 W3        29.82F                  
WENATCHEE      PTCLDY    79  45  29 W9        29.84S                  
ELLENSBURG     PTCLDY    72  51  47 NW17G26   29.91R                  
YAKIMA         PTCLDY    79  49  34 NW13      29.87R                  
SUNNYSIDE ARPT MOCLDY    79  56  45 NW3       29.84                   
YAKIMA TC      MOCLDY    77  45  32 NW12      29.87R                  
$$

WAZ028-034-035-170400-
COLUMBIA BASIN
  
CITY           SKY/WX    TMP DP  RH WIND       PRES   REMARKS
EPHRATA        CLEAR     79  47  32 SW9       29.84F                  
MOSES LAKE     CLEAR     82  47  29 SW8       29.85S                  
PASCO          CLEAR     85  47  26 SW7       29.81F                  
RICHLAND ARPT  CLEAR     83  51  33 MISG      29.82S                  
HERMISTON, OR  CLEAR     81  46  29 W9        29.83S                  
$$

WAZ036>038-170400-
NORTHEAST WASHINGTON
  
CITY           SKY/WX    TMP DP  RH WIND       PRES   REMARKS
SPOKANE GEIGER MOCLDY    71  52  50 S6        29.91R                  
SPOKANE FELTS  MOCLDY    72  52  49 CALM      29.90R                  
FAIRCHILD AFB  CLOUDY    71  52  51 N5        29.91S                  
COEURDALENE,ID PTCLDY    68  52  56 S6        29.92S                  
DEER PARK      LGT RAIN  65  56  72 N8        29.92S                  
$$

WAZ029>033-170400-
SOUTHEAST WASHINGTON
  
CITY           SKY/WX    TMP DP  RH WIND       PRES   REMARKS
PULLMAN        CLEAR     72  44  36 W7        29.94S                  
LEWISTON, ID   CLOUDY    81  43  26 W14       29.87R                  
WALLA WALLA    CLEAR     81  40  23 SW7       29.86F                  
PENDLETON, OR  CLEAR     78  41  26 W8        29.87F                  
$$